Find Starlink 31895

NORAD ID: 59849 Int'l Des: 2024-097 Owner: SPXS Country: US Constellation: starlink operational
LEOCIRCULAR

Current View

Loading 3D Globe...

About Starlink 31895

Starlink 31895 (NORAD 59849) is a starlink constellation satellite (v2 mini) launched May 23, 2024 by SPXS of US. It operates in LEO, CIRCULAR orbit with a mass of 730.00 kg.

Upcoming Passes

Passes for default location (London). Set your location on the main map for personalized predictions.

Altitude History

Loading altitude history...

Two-Line Element Set

1 59849U 24097Q 26263.05388537 .00009474 00000-0 35331-3 0 9997
2 59849 43.0010 256.5798 0001278 251.6169 108.4544 15.27583003131640
Epoch: Sep 20, 2026 • Age: 13 hours

Current Status

Altitude 483.0 km
Apogee / Perigee N/A
Velocity 7.63 km/s
Sub-Earth Point -3.62°S, 142.02°W
Launch Date May 23, 2024
Age 2.3 years
Type internet

Technical Details

Classification Payload
Mass 730.00 kg
Dry Mass 700.00 kg
Length 0.30 m
Span 29.00 m
Shape ? Box + pan
Manufacturer SPXS
Bus Type Starlink V2M
Phase Status In Orbit
Owner/State SPXS/US

Most Searched